Location: Ashtead
(51.3000°N, 0.3000°W)
Time: 04:04:03
(UTC+00:00)

Cosmos 1980 Rocket - Pass Details

Date: 26 September 2023
Orbit: 828 x 850 km, 71.0° (Epoch: 29 November)

Event Time Altitude Azimuth Distance (km) Brightness Sun altitude
Rises 01:25:04 0° 330° (NNW) 3,426 5.7 -36.1°
Reaches altitude 10° 01:27:32 10° 332° (NNW) 2,488 4.9 -36.0°
Enters shadow 01:29:27 22° 334° (NNW) 1,783 4.1 -35.8°
